Location: Boston
(42.3580°N, 71.0600°W)
Time: 03:39:48
(UTC-04:00)

ISS - Pass Details

Date: 07 October 2017
Orbit: 401 x 408 km, 51.6° (Epoch: 23 October)

Event Time Altitude Azimuth Distance (km) Brightness Sun altitude
Rises 19:05:32 0° 301° (WNW) 2,326 1.2 -10.2°
Reaches altitude 10° 19:08:09 10° 323° (NW) 1,467 -0.4 -10.6°
Maximum altitude 19:10:23 17° 6° (N) 1,129 -1.6 -11.1°
Enters shadow 19:12:30 11° 47° (NE) 1,440 -1.5 -11.4°
